EW2500 Weather Reports


Display with metric or nautical units.
time (UTC)temp
F
wind
direction
speed
MPH
gust
MPH
rain 1hr
in
rain 24hr
in
rain mn
in
humidity
%
barometer
mb
20180420063054 33 248 3.0 5.0 0.00 0.00 0.00 78 1012.2
20180420062601 33 292 3.0 6.0 0.00 0.00 0.00 77 1012.3
20180420062104 33 297 4.0 8.0 0.00 0.00 0.00 78 1012.3
20180420061607 33 310 3.0 8.0 0.00 0.00 0.00 78 1012.2
20180420061109 33 273 3.0 9.0 0.00 0.00 0.00 78 1012.2
20180420060554 34 297 3.0 9.0 0.00 0.00 0.00 78 1012.3
20180420060056 34 309 3.0 8.0 0.00 0.00 0.00 78 1012.2
20180420055603 34 306 3.0 8.0 0.00 0.00 0.00 78 1012.2
20180420055105 34 294 2.0 10.0 0.00 0.00 0.00 79 1012.2
20180420054550 34 328 3.0 10.0 0.00 0.00 0.00 79 1012.3
20180420054053 34 331 2.0 5.0 0.00 0.00 0.00 79 1012.3
20180420053559 34 280 3.0 5.0 0.00 0.00 0.00 79 1012.3
20180420053059 34 334 3.0 5.0 0.00 0.00 0.00 79 1012.2
20180420052603 34 292 3.0 8.0 0.00 0.00 0.00 78 1012.2
20180420052105 34 302 3.0 8.0 0.00 0.00 0.00 78 1012.3
20180420051555 34 271 3.0 12.0 0.00 0.00 0.00 78 1012.3
20180420051058 34 302 5.0 12.0 0.00 0.00 0.00 78 1012.3
20180420050601 34 310 4.0 9.0 0.00 0.00 0.00 79 1012.3
20180420050101 34 337 3.0 9.0 0.00 0.00 0.00 79 1012.3
20180420045606 34 331 4.0 9.0 0.00 0.00 0.00 79 1012.3
20180420045105 34 286 4.0 6.0 0.00 0.00 0.00 80 1012.3
20180420044611 34 302 4.0 7.0 0.00 0.00 0.00 80 1012.2
20180420044111 34 317 3.0 8.0 0.00 0.00 0.00 80 1012.2
20180420043555 34 325 4.0 8.0 0.00 0.00 0.00 80 1012.1
20180420043056 34 298 3.0 7.0 0.00 0.00 0.00 80 1012.0
20180420042602 35 294 3.0 9.0 0.00 0.00 0.00 79 1012.0
20180420042059 35 295 5.0 9.0 0.00 0.00 0.00 79 1012.0
20180420041603 35 302 3.0 8.0 0.00 0.00 0.00 79 1011.9
20180420041103 35 275 4.0 9.0 0.00 0.00 0.00 79 1011.9
20180420040608 35 284 4.0 9.0 0.00 0.00 0.00 79 1011.9
20180420040106 35 311 3.0 8.0 0.00 0.00 0.00 78 1011.9
20180420035551 35 300 4.0 10.0 0.00 0.00 0.00 79 1011.8
20180420035052 35 296 4.0 10.0 0.00 0.00 0.00 78 1011.7
20180420034600 35 302 4.0 8.0 0.00 0.00 0.00 79 1011.8
20180420034058 35 301 3.0 8.0 0.00 0.00 0.00 78 1011.7
20180420033604 35 237 2.0 8.0 0.00 0.00 0.00 78 1011.6
20180420033101 36 175 4.0 8.0 0.00 0.00 0.00 77 1011.6
20180420032606 36 226 3.0 11.0 0.00 0.00 0.00 77 1011.6
20180420032107 36 254 6.0 11.0 0.00 0.00 0.00 77 1011.4
20180420031554 36 310 4.0 11.0 0.00 0.00 0.00 77 1011.3
20180420031056 36 306 3.0 11.0 0.00 0.00 0.00 76 1011.3
20180420030601 36 302 5.0 11.0 0.00 0.00 0.00 76 1011.2
20180420030100 36 273 4.0 11.0 0.00 0.00 0.00 76 1011.2
20180420025606 36 300 5.0 11.0 0.00 0.00 0.00 76 1011.2
20180420025103 36 280 3.0 12.0 0.00 0.00 0.00 77 1011.2
20180420024548 36 296 5.0 12.0 0.00 0.00 0.00 76 1011.1
20180420024108 35 329 4.0 11.0 0.00 0.00 0.00 77 1011.1
20180420023555 35 268 1.0 7.0 0.00 0.00 0.00 77 1011.0
20180420023056 36 306 3.0 9.0 0.00 0.00 0.00 76 1011.0
20180420022623 36 257 3.0 9.0 0.00 0.00 0.00 76 1010.9
20180420022122 35 307 5.0 12.0 0.00 0.00 0.00 77 1010.8
20180420021611 35 281 4.0 12.0 0.00 0.00 0.00 77 1010.8
20180420020559 36 291 2.0 7.0 0.00 0.00 0.00 76 1010.8
20180420020058 36 263 4.0 7.0 0.00 0.00 0.00 76 1010.8
20180420015607 36 292 2.0 5.0 0.00 0.00 0.00 76 1010.7
20180420015106 36 236 2.0 5.0 0.00 0.00 0.00 77 1010.7
20180420014615 36 259 2.0 5.0 0.00 0.00 0.00 76 1010.7
20180420014056 36 301 2.0 6.0 0.00 0.00 0.00 76 1010.7
20180420013601 36 336 3.0 6.0 0.00 0.00 0.00 75 1010.6
20180420013058 36 272 3.0 10.0 0.00 0.00 0.00 74 1010.5
20180420012602 36 311 3.0 11.0 0.00 0.00 0.00 75 1010.5
20180420012103 37 265 5.0 12.0 0.00 0.00 0.00 73 1010.4
20180420011630 37 304 5.0 12.0 0.00 0.00 0.00 73 1010.3
20180420011110 37 265 3.0 9.0 0.00 0.00 0.00 73 1010.2
20180420010552 37 296 3.0 17.0 0.00 0.00 0.00 73 1010.1
20180420010118 37 292 4.0 17.0 0.00 0.00 0.00 72 1010.1
20180420005625 37 317 6.0 12.0 0.00 0.00 0.00 71 1009.9
20180420005102 37 328 3.0 10.0 0.00 0.00 0.00 73 1009.9
20180420004606 38 286 4.0 9.0 0.00 0.00 0.00 73 1009.8
20180420004131 38 338 4.0 14.0 0.00 0.00 0.00 73 1009.7
20180420003552 38 300 6.0 14.0 0.00 0.00 0.00 74 1009.5
20180420003054 38 302 5.0 14.0 0.00 0.00 0.00 76 1009.5
20180420002559 38 312 6.0 14.0 0.00 0.00 0.00 79 1009.2
20180420002058 38 334 5.0 9.0 0.00 0.00 0.00 79 1009.2
20180420001605 38 298 3.0 5.0 0.00 0.00 0.00 80 1009.1
20180420001106 38 296 3.0 8.0 0.00 0.00 0.00 80 1009.1
20180420000609 38 300 4.0 8.0 0.00 0.00 0.00 80 1009.0
20180420000105 38 305 3.0 10.0 0.00 0.00 0.00 82 1008.9
20180419235549 38 342 4.0 11.0 0.00 0.00 0.00 83 1008.8
20180419235056 38 325 4.0 11.0 0.00 0.00 0.00 86 1008.7
20180419234601 38 327 3.0 7.0 0.00 0.00 0.00 89 1008.7
20180419234100 37 324 2.0 15.0 0.00 0.00 0.00 91 1008.6
20180419233608 37 263 5.0 15.0 0.00 0.00 0.00 92 1008.6
20180419233107 37 296 3.0 5.0 0.00 0.00 0.00 92 1008.5
20180419232556 37 284 1.0 3.0 0.00 0.00 0.00 92 1008.4
20180419232055 37 284 1.0 3.0 0.00 0.00 0.00 92 1008.2
20180419231600 37 284 1.0 3.0 0.00 0.00 0.00 92 1008.1
20180419231059 37 260 1.0 5.0 0.00 0.00 0.00 92 1008.0
20180419230603 37 323 2.0 5.0 0.00 0.00 0.00 92 1008.0
20180419230107 37 292 2.0 4.0 0.00 0.00 0.00 92 1007.9
20180419225552 36 291 2.0 4.0 0.00 0.00 0.00 92 1007.8
20180419225052 36 306 1.0 3.0 0.00 0.00 0.00 92 1007.6
20180419224558 36 306 2.0 3.0 0.00 0.00 0.00 92 1007.6
20180419224101 36 302 2.0 4.0 0.00 0.00 0.00 92 1007.6
20180419223604 36 355 2.0 4.0 0.00 0.00 0.00 92 1007.5
20180419223112 36 307 2.0 6.0 0.00 0.00 0.00 92 1007.5
20180419222556 36 344 3.0 7.0 0.00 0.00 0.00 92 1007.4
20180419222058 37 325 4.0 13.0 0.00 0.00 0.00 92 1007.3
20180419221600 37 360 7.0 13.0 0.00 0.00 0.00 92 1007.4
20180419221102 37 331 3.0 5.0 0.00 0.00 0.00 92 1007.4
20180419220605 38 294 2.0 5.0 0.00 0.00 0.00 92 1007.1
20180419220105 37 323 2.0 6.0 0.00 0.00 0.00 92 1007.1
20180419215553 38 302 2.0 6.0 0.00 0.00 0.00 91 1007.1
20180419215057 38 275 2.0 6.0 0.00 0.00 0.00 91 1007.0
20180419214603 39 295 2.0 4.0 0.00 0.00 0.00 90 1007.0
20180419214102 40 296 2.0 9.0 0.00 0.00 0.00 89 1006.9
20180419213055 41 308 2.0 10.0 0.00 0.00 0.00 87 1006.3
20180419212600 41 289 4.0 6.0 0.00 0.00 0.00 87 1006.2
20180419212100 41 275 2.0 6.0 0.00 0.00 0.00 87 1006.1
20180419211603 41 279 3.0 8.0 0.00 0.00 0.00 87 1006.1
20180419211104 42 296 4.0 9.0 0.00 0.00 0.00 88 1006.0
20180419210551 42 293 2.0 9.0 0.00 0.00 0.00 89 1005.7
20180419210053 41 271 5.0 9.0 0.00 0.00 0.00 90 1005.6
20180419205601 41 309 3.0 8.0 0.00 0.00 0.00 91 1005.5
20180419205101 40 301 5.0 8.0 0.00 0.00 0.00 91 1005.5
20180419204608 40 307 2.0 10.0 0.00 0.00 0.00 91 1005.5
20180419204051 40 327 3.0 10.0 0.00 0.00 0.00 92 1005.4
20180419203558 40 63 3.0 7.0 0.00 0.00 0.00 92 1005.2
20180419203059 40 296 3.0 7.0 0.00 0.00 0.00 92 1005.3
20180419202602 40 328 2.0 9.0 0.00 0.00 0.00 92 1004.9
20180419202100 40 302 3.0 12.0 0.00 0.00 0.00 92 1005.0
20180419201605 40 245 6.0 12.0 0.00 0.00 0.00 92 1005.5
20180419201109 41 301 2.0 9.0 0.00 0.00 0.00 92 1005.1
20180419200555 40 338 3.0 9.0 0.00 0.00 0.00 92 1004.6
20180419200056 40 5 2.0 6.0 0.00 0.00 0.00 92 1004.7
20180419195559 39 329 3.0 6.0 0.00 0.00 0.00 92 1004.9
20180419195101 39 288 3.0 6.0 0.00 0.00 0.00 92 1005.2
20180419194608 39 313 3.0 10.0 0.00 0.00 0.00 92 1005.2
20180419194051 39 292 4.0 10.0 0.00 0.00 0.00 92 1005.0
20180419193558 39 304 3.0 10.0 0.00 0.00 0.00 92 1005.1
20180419193059 39 282 4.0 10.0 0.00 0.00 0.00 92 1005.2
20180419192604 39 339 4.0 10.0 0.00 0.00 0.00 92 1005.3
20180419192106 39 297 2.0 11.0 0.00 0.00 0.00 92 1005.3
20180419191552 39 319 4.0 11.0 0.00 0.00 0.00 92 1005.3
20180419191056 39 263 3.0 11.0 0.00 0.00 0.00 92 1005.3
20180419190601 39 247 3.0 10.0 0.00 0.00 0.00 92 1005.2
20180419190105 39 340 5.0 13.0 0.00 0.00 0.00 92 1005.0
20180419185554 39 297 5.0 13.0 0.00 0.00 0.00 92 1005.0
20180419185055 39 265 3.0 12.0 0.00 0.00 0.00 92 1004.8
20180419184601 39 321 4.0 12.0 0.00 0.00 0.00 92 1004.9
20180419184100 39 311 3.0 7.0 0.00 0.00 0.00 92 1004.9
20180419183606 39 283 3.0 9.0 0.00 0.00 0.00 92 1004.8
20180419183111 39 281 2.0 10.0 0.00 0.00 0.00 92 1004.7
20180419182556 39 290 4.0 10.0 0.00 0.00 0.00 92 1004.6
20180419182057 39 5 3.0 5.0 0.00 0.00 0.00 92 1004.6
20180419181600 39 320 2.0 8.0 0.00 0.00 0.00 92 1004.5
20180419181102 39 311 3.0 9.0 0.00 0.00 0.00 92 1004.5
20180419180548 39 322 4.0 9.0 0.00 0.00 0.00 92 1004.4
20180419180053 39 302 4.0 9.0 0.00 0.00 0.00 92 1004.4
20180419175600 39 347 2.0 8.0 0.00 0.00 0.00 92 1004.4
20180419175100 39 281 4.0 8.0 0.00 0.00 0.00 92 1004.2
20180419174604 39 281 4.0 8.0 0.00 0.00 0.00 92 1004.1
20180419174104 39 304 2.0 5.0 0.00 0.00 0.00 92 1004.0
20180419173551 39 19 2.0 5.0 0.00 0.00 0.00 92 1003.9
20180419173055 39 268 3.0 6.0 0.00 0.00 0.00 92 1004.0
20180419172602 39 301 2.0 4.0 0.00 0.00 0.00 92 1003.6
20180419172103 39 294 2.0 3.0 0.00 0.00 0.00 92 1003.6
20180419171549 39 351 1.0 4.0 0.00 0.00 0.00 92 1003.4
20180419171051 39 30 1.0 4.0 0.00 0.00 0.00 92 1003.4
20180419170559 39 277 2.0 3.0 0.00 0.00 0.00 92 1003.3
20180419170100 39 233 1.0 3.0 0.00 0.00 0.00 92 1003.2
20180419165606 39 215 1.0 3.0 0.00 0.00 0.00 92 1003.3
20180419165109 39 301 2.0 3.0 0.00 0.00 0.00 92 1003.3
20180419164553 39 34 1.0 3.0 0.00 0.00 0.00 92 1003.2
20180419164055 39 310 2.0 4.0 0.00 0.00 0.00 92 1003.2
20180419163600 39 279 2.0 4.0 0.00 0.00 0.00 92 1003.1
20180419163102 39 290 2.0 4.0 0.00 0.00 0.00 92 1003.2
20180419162610 39 264 1.0 4.0 0.00 0.00 0.00 92 1003.2
20180419162110 38 238 2.0 4.0 0.00 0.00 0.00 92 1003.1
20180419161556 38 342 1.0 3.0 0.00 0.00 0.00 92 1002.9
20180419161056 38 289 1.0 3.0 0.00 0.00 0.00 92 1003.0
20180419160600 38 279 2.0 3.0 0.00 0.00 0.00 92 1003.0
20180419160103 38 284 1.0 3.0 0.00 0.00 0.00 92 1003.3
20180419155610 38 284 2.0 4.0 0.00 0.00 0.00 92 1003.4
20180419155052 38 263 3.0 4.0 0.00 0.00 0.00 92 1003.6
20180419154558 38 5 0.0 2.0 0.00 0.00 0.00 92 1003.4
20180419154059 38 5 1.0 3.0 0.00 0.00 0.00 92 1003.2
20180419153605 38 5 1.0 3.0 0.00 0.00 0.00 92 1003.0
20180419153101 38 223 0.0 2.0 0.00 0.00 0.00 92 1003.6
20180419152610 38 223 1.0 5.0 0.00 0.00 0.00 92 1003.4
20180419152109 38 271 2.0 5.0 0.00 0.00 0.00 92 1003.8
20180419151556 38 11 1.0 2.0 0.00 0.00 0.00 92 1003.2
20180419151058 38 23 1.0 3.0 0.00 0.00 0.00 92 1003.1
20180419150605 38 23 1.0 3.0 0.00 0.00 0.00 92 1003.1
20180419150109 38 53 0.0 4.0 0.00 0.00 0.00 92 1002.7
20180419145552 37 53 3.0 4.0 0.00 0.00 0.00 92 1002.6
20180419145055 37 27 1.0 3.0 0.00 0.00 0.00 92 1003.0
20180419144601 37 33 2.0 3.0 0.00 0.00 0.00 92 1003.5
20180419144059 37 10 1.0 2.0 0.00 0.00 0.00 92 1003.5
20180419143604 37 53 0.0 4.0 0.00 0.00 0.00 93 1003.6
20180419143105 37 55 1.0 4.0 0.00 0.00 0.00 93 1003.4
20180419142608 37 233 1.0 5.0 0.00 0.00 0.00 92 1003.2
20180419142052 37 32 2.0 5.0 0.00 0.00 0.00 93 1002.8
20180419141556 37 38 2.0 4.0 0.00 0.00 0.00 92 1002.7
20180419141057 37 41 1.0 5.0 0.00 0.00 0.00 92 1003.1
20180419140601 37 344 2.0 5.0 0.00 0.00 0.00 92 1003.4
20180419140102 37 40 2.0 5.0 0.00 0.00 0.00 92 1003.4
20180419135607 37 298 1.0 4.0 0.00 0.00 0.00 92 1003.5
20180419135108 37 345 1.0 4.0 0.00 0.00 0.00 92 1003.5
20180419134552 37 342 1.0 4.0 0.00 0.00 0.00 92 1003.4
20180419134058 37 13 2.0 6.0 0.00 0.00 0.00 92 1003.4
20180419133600 37 5 2.0 6.0 0.00 0.00 0.00 92 1003.6
20180419133104 37 355 2.0 6.0 0.00 0.00 0.00 92 1003.6
20180419132552 37 355 1.0 4.0 0.00 0.00 0.00 92 1003.3
20180419132054 37 42 2.0 4.0 0.00 0.00 0.00 92 1003.3
20180419131600 37 329 2.0 4.0 0.00 0.00 0.00 92 1003.5
20180419131101 37 360 2.0 4.0 0.00 0.00 0.00 92 1003.3
20180419130550 37 348 2.0 5.0 0.00 0.00 0.00 92 1003.2
20180419130051 37 340 1.0 5.0 0.00 0.00 0.00 92 1003.2
20180419125557 37 26 2.0 4.0 0.00 0.00 0.00 92 1002.8
20180419125056 37 342 1.0 3.0 0.00 0.00 0.00 92 1003.0
20180419124602 37 326 2.0 3.0 0.00 0.00 0.00 92 1003.0
20180419124101 37 333 1.0 3.0 0.00 0.00 0.00 92 1003.1
20180419123605 37 324 1.0 3.0 0.00 0.00 0.00 92 1003.0
20180419123106 37 281 1.0 4.0 0.00 0.00 0.00 92 1003.0
20180419122549 37 49 1.0 4.0 0.00 0.00 0.00 92 1002.0
20180419122050 37 46 3.0 4.0 0.00 0.00 0.00 92 1002.2
20180419121559 37 355 1.0 3.0 0.00 0.00 0.00 92 1002.8
20180419121059 37 355 2.0 3.0 0.00 0.00 0.00 92 1002.6
20180419120603 37 323 2.0 4.0 0.00 0.00 0.00 92 1003.0
20180419120103 37 344 2.0 4.0 0.00 0.00 0.00 92 1002.4
20180419115608 37 23 1.0 2.0 0.00 0.00 0.00 92 1002.7
20180419115109 36 16 1.0 2.0 0.00 0.00 0.00 92 1003.0
20180419114555 36 17 1.0 3.0 0.00 0.00 0.00 92 1002.7
20180419114057 36 360 2.0 4.0 0.00 0.00 0.00 92 1003.0
20180419113603 36 98 3.0 4.0 0.00 0.00 0.00 92 1002.4
20180419113102 36 93 2.0 3.0 0.00 0.00 0.00 92 1003.2
20180419112608 36 101 2.0 3.0 0.00 0.00 0.00 92 1003.2
20180419112101 36 100 2.0 3.0 0.00 0.00 0.00 92 1003.3
20180419111604 36 107 1.0 2.0 0.00 0.00 0.00 92 1003.5
20180419111105 36 107 1.0 2.0 0.00 0.00 0.00 92 1003.7
20180419110610 37 170 1.0 2.0 0.00 0.00 0.00 92 1004.0
20180419110051 37 189 0.0 2.0 0.00 0.00 0.00 92 1004.0
20180419105559 37 191 0.0 2.0 0.00 0.00 0.00 92 1004.0
20180419105101 37 191 1.0 2.0 0.00 0.00 0.00 92 1004.0
20180419104603 37 191 1.0 2.0 0.00 0.00 0.00 92 1004.2
20180419104105 37 220 1.0 1.0 0.00 0.00 0.00 92 1004.3
20180419103549 37 220 0.0 3.0 0.00 0.00 0.00 92 1004.5
20180419103053 37 225 0.0 3.0 0.00 0.00 0.00 92 1004.5
20180419102601 37 333 0.0 2.0 0.00 0.00 0.00 92 1004.3
20180419102103 37 333 1.0 2.0 0.00 0.00 0.00 92 1004.4
20180419101548 37 333 0.0 1.0 0.00 0.00 0.00 92 1004.6
20180419101052 37 333 0.0 1.0 0.00 0.00 0.00 92 1004.6
20180419100559 37 333 0.0 1.0 0.00 0.00 0.00 92 1004.5
20180419100058 37 333 0.0 1.0 0.00 0.00 0.00 92 1004.3
20180419095604 37 333 0.0 1.0 0.00 0.00 0.00 92 1004.4
20180419095102 37 333 1.0 1.0 0.00 0.00 0.00 92 1004.6
20180419094550 37 333 0.0 1.0 0.00 0.00 0.00 92 1004.2
20180419094052 37 333 0.0 1.0 0.00 0.00 0.00 92 1004.3
20180419093559 37 333 0.0 0.0 0.00 0.00 0.00 91 1004.1
20180419093100 37 333 0.0 1.0 0.00 0.00 0.00 91 1004.1
20180419092604 37 333 0.0 3.0 0.00 0.00 0.00 91 1004.1
20180419092106 37 338 0.0 3.0 0.00 0.00 0.00 91 1004.1
20180419091052 38 275 0.0 2.0 0.00 0.00 0.00 91 1004.3
20180419090558 38 270 0.0 3.0 0.00 0.00 0.00 91 1004.4
20180419090058 38 270 2.0 3.0 0.00 0.00 0.00 91 1004.3
20180419085605 38 269 2.0 3.0 0.00 0.00 0.00 91 1004.2
20180419085104 38 283 0.0 2.0 0.00 0.00 0.00 90 1003.7
20180419084550 38 282 1.0 2.0 0.00 0.00 0.00 90 1003.9
20180419084053 38 282 1.0 3.0 0.00 0.00 0.00 90 1004.0
20180419083600 38 283 2.0 3.0 0.00 0.00 0.00 89 1003.5
20180419083059 38 102 0.0 2.0 0.00 0.00 0.00 88 1003.0
20180419082604 39 102 1.0 2.0 0.00 0.00 0.00 87 1003.2
20180419082101 39 102 1.0 2.0 0.00 0.00 0.00 86 1003.5
20180419081605 39 102 1.0 2.0 0.00 0.00 0.00 86 1003.6
20180419081105 39 102 1.0 1.0 0.00 0.00 0.00 85 1003.4
20180419080554 39 102 0.0 1.0 0.00 0.00 0.00 84 1003.3
20180419080053 39 102 0.0 2.0 0.00 0.00 0.00 84 1003.5
20180419075558 39 102 1.0 2.0 0.00 0.00 0.00 84 1003.5
20180419075056 39 102 0.0 2.0 0.00 0.00 0.00 85 1003.9
20180419074559 39 102 1.0 3.0 0.00 0.00 0.00 85 1003.9
20180419074100 39 102 1.0 3.0 0.00 0.00 0.00 85 1004.1
20180419073603 39 216 0.0 2.0 0.00 0.00 0.00 84 1004.4
20180419073100 39 196 0.0 3.0 0.00 0.00 0.00 85 1004.3
20180419072605 39 174 1.0 3.0 0.00 0.00 0.00 85 1004.3
20180419072103 39 274 1.0 2.0 0.00 0.00 0.00 85 1004.0
20180419071612 39 275 1.0 2.0 0.00 0.00 0.00 85 1003.7
20180419071111 39 275 0.0 2.0 0.00 0.00 0.00 85 1003.5
20180419070553 39 275 1.0 2.0 0.00 0.00 0.00 85 1003.8
20180419070053 39 275 0.0 2.0 0.00 0.00 0.00 84 1004.3
20180419065558 39 275 1.0 2.0 0.00 0.00 0.00 85 1004.6
20180419065101 39 274 0.0 2.0 0.00 0.00 0.00 85 1004.3
20180419064606 39 275 0.0 2.0 0.00 0.00 0.00 85 1004.4
20180419064050 39 274 1.0 2.0 0.00 0.00 0.00 86 1004.9
20180419063556 39 275 0.0 2.0 0.00 0.00 0.00 86 1004.7